Location: Drocourt
(49.0571°N, 1.7669°E)
Time: 06:44:18
(UTC+00:00)

SR - Pass Details

Date: 30 April 2024
Orbit: 579 x 859 km, 66.7° (Epoch: 26 May)

Event Time Altitude Azimuth Distance (km) Brightness Sun altitude
Exits shadow 22:49:28 46° 95° (E) 999 ? -24.4°
Drops below altitude 10° 22:53:41 10° 45° (NE) 2,201 ? -24.6°
Sets 22:56:00 0° 40° (NE) 3,078 ? -24.7°
